DLH233 EDDE-EDDF

Flight info

Callsign DLH233
Flight time N/A
Altitude 20000
Route ERSIL1D ERSIL Y222 FUL/N0381F190 T152 KERAX KERAX5A
Aircraft A320/M-SDE3FGHIRWY/LB1

Departure

Time 2026-04-24 13:09
Airport Erfurt-Weimar Airport (EDDE)

Arrival

Time N/A
Airport Frankfurt Main Airport (EDDF)
Time Latitude Longitude Altitude Speed Heading
2026-04-24 12:40 50.97579 10.96156 1026 ft 0 kts 251°
2026-04-24 12:58 50.97580 10.96158 1026 ft 1 kts 251°
2026-04-24 12:59 50.97585 10.96183 1025 ft 3 kts 253°
2026-04-24 12:59 50.97590 10.96213 1026 ft 3 kts 276°
2026-04-24 12:59 50.97589 10.96231 1026 ft 2 kts 354°
2026-04-24 12:59 50.97585 10.96232 1026 ft 0 kts
2026-04-24 13:04 50.97610 10.96237 1023 ft 7 kts
2026-04-24 13:04 50.97672 10.96249 1026 ft 10 kts
2026-04-24 13:04 50.97725 10.96310 1026 ft 10 kts 76°
2026-04-24 13:04 50.97720 10.96412 1025 ft 10 kts 97°
2026-04-24 13:05 50.97707 10.96571 1023 ft 18 kts 97°
2026-04-24 13:05 50.97692 10.96758 1023 ft 16 kts 97°
2026-04-24 13:05 50.97678 10.96929 1022 ft 15 kts 98°
2026-04-24 13:05 50.97682 10.97084 1021 ft 14 kts 81°
2026-04-24 13:06 50.97696 10.97227 1023 ft 12 kts 81°
2026-04-24 13:06 50.97708 10.97358 1023 ft 11 kts 82°
2026-04-24 13:06 50.97725 10.97455 1023 ft 7 kts 56°
2026-04-24 13:06 50.97755 10.97511 1022 ft 7 kts 48°
2026-04-24 13:07 50.97788 10.97563 1021 ft 7 kts 36°
2026-04-24 13:07 50.97834 10.97554 1020 ft 8 kts 327°
2026-04-24 13:07 50.97845 10.97510 1020 ft 0 kts 277°
2026-04-24 13:07 50.97849 10.97463 1021 ft 28 kts 278°
2026-04-24 13:08 50.97906 10.96734 1025 ft 100 kts 277°
2026-04-24 13:08 50.98018 10.95323 1033 ft 154 kts 277°
2026-04-24 13:08 50.98125 10.93597 1636 ft 159 kts 277°
2026-04-24 13:09 50.98268 10.89973 2858 ft 181 kts 275°
2026-04-24 13:09 50.98349 10.87831 3206 ft 207 kts 275°
2026-04-24 13:09 50.98392 10.85445 3662 ft 232 kts 273°
2026-04-24 13:09 50.98404 10.82753 4199 ft 254 kts 273°
2026-04-24 13:10 50.98405 10.79894 5093 ft 261 kts 272°
2026-04-24 13:10 50.98406 10.77002 6020 ft 267 kts 273°
2026-04-24 13:10 50.98413 10.74029 6947 ft 271 kts 274°
2026-04-24 13:10 50.98424 10.71001 7872 ft 275 kts 274°
2026-04-24 13:11 50.98441 10.67938 8782 ft 279 kts 274°
2026-04-24 13:11 50.98462 10.64827 9705 ft 283 kts 274°
2026-04-24 13:11 50.98483 10.61703 10509 ft 292 kts 274°
2026-04-24 13:11 50.98511 10.58343 10843 ft 315 kts 275°
2026-04-24 13:12 50.98789 10.54815 11190 ft 333 kts 286°
2026-04-24 13:12 50.99530 10.51280 11862 ft 338 kts 294°
2026-04-24 13:12 51.00393 10.47812 12630 ft 343 kts 293°
2026-04-24 13:12 51.01266 10.44245 13394 ft 348 kts 293°
2026-04-24 13:13 51.02144 10.40634 14154 ft 352 kts 292°
2026-04-24 13:13 51.03019 10.36971 14845 ft 356 kts 290°
2026-04-24 13:13 51.03486 10.33077 15535 ft 363 kts 274°
2026-04-24 13:13 51.03270 10.29055 16232 ft 369 kts 258°
2026-04-24 13:14 51.02364 10.25237 16908 ft 376 kts 243°
2026-04-24 13:14 51.00786 10.21878 17594 ft 383 kts 227°
2026-04-24 13:14 50.98921 10.18942 18262 ft 386 kts 226°
2026-04-24 13:14 50.97022 10.15973 18872 ft 389 kts 226°
2026-04-24 13:15 50.95073 10.12920 19462 ft 392 kts 227°
2026-04-24 13:15 50.93122 10.09860 20023 ft 394 kts 227°
2026-04-24 13:15 50.91200 10.06847 19895 ft 391 kts 227°
2026-04-24 13:15 50.89267 10.03823 19317 ft 389 kts 226°
2026-04-24 13:16 50.87354 10.00832 18772 ft 388 kts 226°
2026-04-24 13:16 50.85438 9.97834 18245 ft 386 kts 226°
2026-04-24 13:16 50.83533 9.94854 17684 ft 383 kts 226°
2026-04-24 13:16 50.81644 9.91902 17152 ft 380 kts 226°
2026-04-24 13:17 50.79764 9.88973 16628 ft 378 kts 226°
2026-04-24 13:17 50.77888 9.86089 16140 ft 375 kts 225°
2026-04-24 13:17 50.75984 9.83286 15653 ft 373 kts 224°
2026-04-24 13:17 50.74060 9.80535 15163 ft 371 kts 224°
2026-04-24 13:18 50.72158 9.77852 14707 ft 369 kts 224°
2026-04-24 13:18 50.70245 9.75161 14237 ft 367 kts 224°
2026-04-24 13:18 50.68344 9.72476 13736 ft 365 kts 224°
2026-04-24 13:18 50.66475 9.69823 13203 ft 363 kts 224°
2026-04-24 13:19 50.64607 9.67165 12719 ft 361 kts 224°
2026-04-24 13:19 50.62743 9.64510 12175 ft 359 kts 224°
2026-04-24 13:19 50.60895 9.61879 11677 ft 358 kts 225°
2026-04-24 13:19 50.59052 9.59255 11276 ft 356 kts 224°
2026-04-24 13:20 50.57220 9.56655 11204 ft 357 kts 224°
2026-04-24 13:20 50.55361 9.54020 11009 ft 358 kts 224°
2026-04-24 13:20 50.53534 9.51439 10732 ft 356 kts 224°
2026-04-24 13:20 50.51690 9.48833 10477 ft 355 kts 224°
2026-04-24 13:21 50.49840 9.46219 10221 ft 354 kts 224°
2026-04-24 13:21 50.48059 9.43709 10044 ft 342 kts 224°
2026-04-24 13:21 50.46319 9.41260 9917 ft 329 kts 224°
2026-04-24 13:21 50.44654 9.38914 9771 ft 318 kts 224°
2026-04-24 13:22 50.43032 9.36631 9641 ft 307 kts 224°
2026-04-24 13:22 50.41475 9.34441 9509 ft 297 kts 224°
2026-04-24 13:22 50.39954 9.32303 9368 ft 288 kts 224°
2026-04-24 13:22 50.38976 9.30928 9283 ft 282 kts 225°
2026-04-24 13:23 50.37075 9.28261 9177 ft 268 kts 225°
2026-04-24 13:23 50.35697 9.26326 9194 ft 265 kts 225°
2026-04-24 13:23 50.34787 9.25047 9191 ft 264 kts 225°
2026-04-24 13:23 50.32982 9.22515 9193 ft 264 kts 224°
2026-04-24 13:24 50.31612 9.20597 9168 ft 264 kts 225°
2026-04-24 13:24 50.30700 9.19321 9097 ft 264 kts 223°
2026-04-24 13:24 50.29320 9.17393 8765 ft 266 kts 225°
2026-04-24 13:24 50.27942 9.15471 8429 ft 264 kts 224°
2026-04-24 13:25 50.26570 9.13566 8099 ft 263 kts 224°
2026-04-24 13:25 50.25221 9.11690 7781 ft 261 kts 224°
2026-04-24 13:25 50.23857 9.09792 7459 ft 261 kts 224°
2026-04-24 13:25 50.22491 9.07894 7126 ft 262 kts 224°
2026-04-24 13:26 50.21143 9.06025 6811 ft 261 kts 224°
2026-04-24 13:26 50.19785 9.04136 6505 ft 261 kts 223°
2026-04-24 13:26 50.18426 9.02246 6161 ft 262 kts 224°
2026-04-24 13:26 50.17057 9.00347 5826 ft 263 kts 224°
2026-04-24 13:27 50.15705 8.98477 5492 ft 262 kts 224°
2026-04-24 13:27 50.14324 8.96566 5099 ft 264 kts 223°
2026-04-24 13:27 50.12928 8.94600 4314 ft 278 kts 228°
2026-04-24 13:27 50.11934 8.92082 4057 ft 269 kts 251°
2026-04-24 13:28 50.11294 8.89395 3998 ft 255 kts 253°
2026-04-24 13:28 50.10698 8.86930 3987 ft 230 kts 252°
2026-04-24 13:28 50.10149 8.84701 3884 ft 212 kts 252°